Location: Fatehalanka
(16.3139°N, 80.8379°E)
Time: 21:34:22
(UTC+00:00)

Cosmos 1656 - Pass Details

Date: 14 May 2026
Orbit: 796 x 847 km, 71.1° (Epoch: 10 June)

Event Time Altitude Azimuth Distance (km) Brightness Sun altitude
Rises 13:25:41 0° 350° (N) 3,356 7.3 -6.7°
Reaches altitude 10° 13:28:09 10° 354° (N) 2,430 6.5 -7.3°
Maximum altitude 13:33:38 57° 73° (ENE) 980 3.8 -8.5°
Drops below altitude 10° 13:39:09 10° 151° (SSE) 2,454 5.6 -9.7°
Enters shadow 13:40:38 - 154° (SSE) 3,009 6.1 -10.0°
